Bluefield, WV

5:01 PM EST on February 27, 2017 (GMT -0500)
Mercer County

Weather History for KBLF - January, 2014

Change the Weather History Date:

Thursday, January 2, 2014

  Actual Average Record
Temperature  
Mean Temperature 30 °F 34 °F  
Max Temperature 44 °F 42 °F 67 °F (2000)
Min Temperature 16 °F 27 °F 0 °F (1979)
Degree Days  
Heating Degree Days 35 31  
Month to date heating degree days 59 62  
Since 1 July heating degree days 1756 1827  
Cooling Degree Days 0 0  
Month to date cooling degree days 0 0  
Year to date cooling degree days 0 0  
Moisture  
Dew Point 24 °F    
Average Humidity 59    
Maximum Humidity 85    
Minimum Humidity 32    
Precipitation  
Precipitation 0.23 in 0.09 in 1.32 in (2004)
Month to date precipitation 0.23 0.18  
Year to date precipitation 0.23 0.18  
Snow  
Snow 2.40 in - - ()
Month to date snowfall 2.4  
Since 1 July snowfall 6.7  
Snow Depth 2.00 in    
Sea Level Pressure  
Sea Level Pressure 29.75 in    
Wind  
Wind Speed 7 mph (WNW)    
Max Wind Speed 24 mph    
Max Gust Speed 36 mph    
Visibility 5 miles    
Events Rain , Snow    
T = Trace of Precipitation, MM = Missing Value Source: NWS Daily Summary

Daily Weather History Graph

Daily Weather History Graph

Search for Another Location

Airport or City:

Trip Planner

Search our weather history database for the weather conditions in past years. The results will help you decide how hot, cold, wet, or windy it might be!

Date:

Astronomy

Jan. 02, 2014 Rise Set
Actual Time 7:39 AM EST 5:18 PM EST
Civil Twilight 7:10 AM EST 5:47 PM EST
Nautical Twilight 6:37 AM EST 6:20 PM EST
Astronomical Twilight 6:05 AM EST 6:52 PM EST
Moon 8:21 AM EST (1/2) 7:11 PM EST (1/2)
Length of Visible Light 10h 37m
Length of Day
9h 39m
New Moon, 2% of the Moon is Illuminated
Jan 2
New Moon
Jan 7
First Quarter
Jan 15
Full
Jan 24
Last Quarter
Jan 30
New

Hourly Weather History & Observations

Time (EST) Temp. Windchill Dew Point Humidity Pressure Visibility Wind Dir Wind Speed Gust Speed Precip Events Conditions
12:52 AM 39.9 °F - 16.0 °F 38% 30.02 in 10.0 mi Calm Calm - N/A   Clear
1:52 AM 39.9 °F 37.8 °F 14.0 °F 35% 29.99 in 10.0 mi West 3.5 mph - N/A   Clear
2:52 AM 41.0 °F - 14.0 °F 33% 29.96 in 10.0 mi Calm Calm - N/A   Clear
3:52 AM 41.0 °F - 14.0 °F 33% 29.93 in 10.0 mi Calm Calm - N/A   Clear
4:52 AM 37.9 °F 33.5 °F 16.0 °F 41% 29.93 in 10.0 mi NW 5.8 mph - N/A   Clear
5:52 AM 39.0 °F 35.7 °F 16.0 °F 39% 29.91 in 10.0 mi West 4.6 mph - N/A   Partly Cloudy
6:52 AM 39.9 °F 36.7 °F 21.0 °F 47% 29.91 in 10.0 mi SSW 4.6 mph - N/A   Overcast
7:52 AM 39.9 °F 35.8 °F 25.0 °F 55% 29.87 in 10.0 mi West 5.8 mph - N/A   Overcast
8:52 AM 42.1 °F - 28.9 °F 60% 29.84 in 10.0 mi Calm Calm - 0.00 in   Overcast
9:34 AM 42.8 °F - 32.0 °F 66% 29.82 in 10.0 mi Calm Calm - N/A   Overcast
9:52 AM 43.0 °F - 30.9 °F 62% 29.82 in 10.0 mi Calm Calm - N/A   Overcast
10:52 AM 44.1 °F 41.5 °F 34.0 °F 68% 29.80 in 10.0 mi WSW 4.6 mph - 0.00 in Rain Light Rain
11:38 AM 42.8 °F 41.1 °F 37.4 °F 81% 29.75 in 10.0 mi SW 3.5 mph - 0.02 in Rain Light Rain
11:52 AM 44.1 °F 39.5 °F 37.0 °F 76% 29.74 in 10.0 mi WSW 8.1 mph - 0.02 in Rain Light Rain
12:21 PM 44.6 °F 43.1 °F 37.4 °F 76% 29.70 in 10.0 mi SSW 3.5 mph - 0.00 in Rain Light Rain
12:52 PM 44.1 °F 40.1 °F 37.0 °F 76% 29.67 in 10.0 mi WSW 6.9 mph - 0.01 in Rain Light Rain
1:52 PM 43.0 °F 40.3 °F 37.9 °F 82% 29.63 in 10.0 mi Variable 4.6 mph - 0.04 in Rain Light Rain
1:59 PM 44.6 °F 41.4 °F 37.4 °F 76% 29.63 in 10.0 mi WSW 5.8 mph - 0.00 in Rain Light Rain
2:52 PM 43.0 °F 38.2 °F 37.9 °F 82% 29.62 in 6.0 mi West 8.1 mph - 0.02 in Rain Light Rain
3:21 PM 42.8 °F 36.6 °F 37.4 °F 81% 29.63 in 10.0 mi West 11.5 mph 20.7 mph 0.02 in Rain Light Rain
3:52 PM 41.0 °F 34.3 °F 36.0 °F 82% 29.63 in 6.0 mi West 11.5 mph - 0.07 in Rain Rain
4:52 PM 37.9 °F 30.5 °F 33.1 °F 83% 29.66 in 6.0 mi WNW 11.5 mph 21.9 mph 0.03 in Snow Light Snow
5:52 PM 36.0 °F 27.5 °F 30.0 °F 79% 29.66 in 8.0 mi WNW 12.7 mph 25.3 mph 0.00 in Snow Light Snow
6:28 PM 35.6 °F 28.0 °F 28.4 °F 75% 29.66 in 1.8 mi WNW 10.4 mph 21.9 mph 0.00 in Snow Light Snow
6:44 PM 33.8 °F 24.8 °F 28.4 °F 81% 29.66 in 4.0 mi WNW 12.7 mph 24.2 mph 0.00 in Snow Light Snow
6:52 PM 34.0 °F 25.5 °F 28.0 °F 79% 29.68 in 6.0 mi WNW 11.5 mph 25.3 mph 0.00 in Snow Light Snow
6:59 PM 33.8 °F 24.3 °F 28.4 °F 81% 29.66 in 1.5 mi WNW 13.8 mph 21.9 mph 0.00 in Snow Light Snow
7:03 PM 33.8 °F 23.9 °F 28.4 °F 81% 29.67 in 0.8 mi WNW 15.0 mph 21.9 mph 0.01 in Snow Light Snow
7:13 PM 33.8 °F 24.8 °F 28.4 °F 81% 29.66 in 1.2 mi WNW 12.7 mph 24.2 mph 0.01 in Snow Light Snow
7:18 PM 33.8 °F 23.2 °F 28.4 °F 81% 29.66 in 2.0 mi NW 17.3 mph 24.2 mph 0.01 in Snow Light Snow
7:26 PM 32.0 °F 21.6 °F 26.6 °F 80% 29.66 in 1.5 mi NW 15.0 mph 25.3 mph 0.01 in Snow Light Snow
7:30 PM 32.0 °F 23.6 °F 26.6 °F 80% 29.66 in 1.0 mi WNW 10.4 mph 25.3 mph 0.01 in Snow Light Snow
7:37 PM 32.0 °F 24.8 °F 26.6 °F 80% 29.66 in 0.8 mi WNW 8.1 mph 17.3 mph 0.02 in Snow Light Snow
7:52 PM 30.9 °F 22.8 °F 27.0 °F 85% 29.70 in 0.8 mi WNW 9.2 mph 19.6 mph 0.02 in Snow Light Snow
8:21 PM 30.2 °F 19.3 °F 24.8 °F 80% 29.68 in 1.2 mi WNW 15.0 mph 27.6 mph 0.02 in Snow Light Snow
8:27 PM 30.2 °F 17.8 °F 24.8 °F 80% 29.68 in 2.5 mi WNW 19.6 mph 29.9 mph 0.02 in Snow Light Snow
8:49 PM 30.2 °F 22.6 °F 24.8 °F 80% 29.69 in 3.0 mi NW 8.1 mph 20.7 mph 0.02 in Snow Light Snow
8:52 PM 30.0 °F 19.5 °F 24.1 °F 79% 29.72 in 2.0 mi NW 13.8 mph 21.9 mph 0.02 in Snow Light Snow
8:59 PM 28.4 °F 18.0 °F 23.0 °F 80% 29.69 in 1.8 mi NW 12.7 mph 25.3 mph 0.00 in Snow Light Snow
9:06 PM 28.4 °F 15.8 °F 21.2 °F 74% 29.69 in 3.0 mi NW 18.4 mph 28.8 mph 0.00 in Snow Light Snow
9:15 PM 26.6 °F 13.8 °F 19.4 °F 74% 29.70 in 2.0 mi NW 17.3 mph 29.9 mph 0.00 in Snow Light Snow
9:23 PM 26.6 °F 14.3 °F 19.4 °F 74% 29.71 in 1.2 mi NW 16.1 mph 28.8 mph 0.00 in Snow Light Snow
9:32 PM 24.8 °F 12.4 °F 19.4 °F 80% 29.72 in 1.0 mi NW 15.0 mph 32.2 mph 0.00 in Snow Light Snow
9:43 PM 24.8 °F 10.7 °F 19.4 °F 80% 29.73 in 1.2 mi NW 19.6 mph 35.7 mph 0.00 in Snow Light Snow
9:52 PM 25.0 °F 13.1 °F 18.0 °F 75% 29.77 in 1.0 mi NW 13.8 mph 29.9 mph 0.00 in Snow Light Snow
9:56 PM 24.8 °F 13.4 °F 17.6 °F 74% 29.74 in 1.2 mi WNW 12.7 mph 25.3 mph 0.00 in Snow Light Snow
10:02 PM 24.8 °F 12.4 °F 19.4 °F 80% 29.74 in 0.8 mi WNW 15.0 mph 21.9 mph 0.00 in Snow Light Snow
10:15 PM 23.0 °F 10.6 °F 17.6 °F 80% 29.74 in 0.5 mi WNW 13.8 mph 23.0 mph 0.00 in Snow Snow
10:25 PM 21.2 °F 7.3 °F 15.8 °F 80% 29.75 in 1.2 mi WNW 16.1 mph 29.9 mph 0.00 in Snow Light Snow
10:31 PM 21.2 °F 8.9 °F 15.8 °F 80% 29.76 in 1.0 mi WNW 12.7 mph 33.4 mph 0.00 in Snow Light Snow
10:52 PM 19.9 °F 7.9 °F 14.0 °F 78% 29.82 in 1.0 mi WNW 11.5 mph 28.8 mph 0.00 in Snow Light Snow
11:16 PM 19.4 °F 3.6 °F 12.2 °F 74% 29.79 in 0.8 mi WNW 19.6 mph 31.1 mph 0.00 in Snow Light Snow
11:50 PM 17.6 °F 2.2 °F 8.6 °F 68% 29.82 in 1.2 mi NW 17.3 mph 34.5 mph 0.00 in Snow Light Snow
11:52 PM 17.1 °F 2.5 °F 8.1 °F 68% 29.86 in 2.0 mi WNW 15.0 mph 34.5 mph 0.00 in Snow Light Snow
11:57 PM 15.8 °F -0.6 °F 6.8 °F 68% 29.81 in 3.0 mi WNW 18.4 mph 28.8 mph 0.00 in Snow Light Snow